Weather History for LGEL - February, 2014

Change the Weather History Date:

Tuesday, February 4, 2014

  Actual Average (WUND) Record (WUND)
Temperature  
Mean Temperature 48 °F -  
Max Temperature 51 °F 56 °F - (-1)
Min Temperature 46 °F 40 °F - (-1)
Degree Days  
Heating Degree Days 16    
Moisture  
Dew Point 39 °F    
Average Humidity 69    
Maximum Humidity 76    
Minimum Humidity 58    
Precipitation  
Precipitation 0.00 in - - ()
Sea Level Pressure  
Sea Level Pressure 30.20 in    
Wind  
Wind Speed 6 mph ()    
Max Wind Speed 9 mph    
Max Gust Speed -    
Visibility 6.2 miles    
Events      
Averages and records for this station are not official NWS values.
T = Trace of Precipitation, MM = Missing Value Source: Averaged Metar Reports

Daily Weather History Graph

Daily Weather History Graph

Search for Another Location

Airport or City:

Trip Planner

Search our weather history database for the weather conditions in past years. The results will help you decide how hot, cold, wet, or windy it might be!

Date:

Astronomy

Feb. 04, 2014 Rise Set
Actual Time 7:27 AM EET 5:51 PM EET
Civil Twilight 7:00 AM EET 6:19 PM EET
Nautical Twilight 6:28 AM EET 6:50 PM EET
Astronomical Twilight 5:58 AM EET 7:21 PM EET
Moon 10:00 AM EET 11:20 PM EET
Length of Visible Light 11h 19m
Length of Day
10h 24m
Waxing Crescent, 26% of the Moon is Illuminated
Feb 4
Waxing Crescent
Feb 6
First Quarter
Feb 15
Full
Feb 22
Last Quarter
Mar 1
New

Hourly Weather History & Observations

Time (EET) Temp. Windchill Dew Point Humidity Pressure Visibility Wind Dir Wind Speed Gust Speed Precip Events Conditions
12:50 AM 48.2 °F - 37.4 °F 66% 30.12 in - NNW 6.9 mph - N/A   Clear
1:50 AM 48.2 °F - 37.4 °F 66% 30.12 in 6.2 mi NNW 6.9 mph - N/A   Mostly Cloudy
2:50 AM 48.2 °F - 39.2 °F 71% 30.15 in 6.2 mi NNW 5.8 mph - N/A   Mostly Cloudy
3:50 AM 46.4 °F 43.5 °F 37.4 °F 71% 30.15 in 6.2 mi NW 5.8 mph - N/A   Mostly Cloudy
4:50 AM 46.4 °F 43.5 °F 39.2 °F 76% 30.15 in 6.2 mi NW 5.8 mph - N/A   Mostly Cloudy
5:20 AM 46.4 °F 43.5 °F 39.2 °F 76% 30.15 in 6.2 mi NW 5.8 mph - N/A   Drizzle
5:50 AM 46.4 °F 43.5 °F 39.2 °F 76% 30.15 in 6.2 mi NW 5.8 mph - N/A   Drizzle
6:20 AM 46.4 °F 44.3 °F 39.2 °F 76% 30.18 in 6.2 mi NW 4.6 mph - N/A   Mostly Cloudy
6:50 AM 46.4 °F 43.5 °F 39.2 °F 76% 30.18 in 6.2 mi NNW 5.8 mph - N/A   Mostly Cloudy
7:20 AM 46.4 °F 44.3 °F 39.2 °F 76% 30.18 in 6.2 mi NW 4.6 mph - N/A   Mostly Cloudy
7:50 AM 46.4 °F 42.9 °F 39.2 °F 76% 30.18 in 6.2 mi NNW 6.9 mph - N/A   Mostly Cloudy
8:20 AM 46.4 °F 42.9 °F 39.2 °F 76% 30.21 in 6.2 mi NW 6.9 mph - N/A   Mostly Cloudy
8:50 AM 46.4 °F 42.9 °F 39.2 °F 76% 30.21 in 6.2 mi NNW 6.9 mph - N/A   Mostly Cloudy
9:50 AM 48.2 °F - 39.2 °F 71% 30.21 in 6.2 mi NNW 6.9 mph - N/A   Mostly Cloudy
10:20 AM 48.2 °F - 39.2 °F 71% 30.21 in 6.2 mi NNW 6.9 mph - N/A   Mostly Cloudy
10:50 AM 50.0 °F - 39.2 °F 66% 30.21 in 6.2 mi North 6.9 mph - N/A   Mostly Cloudy
11:20 AM 50.0 °F - 39.2 °F 66% 30.21 in 6.2 mi North 9.2 mph - N/A   Mostly Cloudy
11:50 AM 50.0 °F - 39.2 °F 66% 30.21 in 6.2 mi North 6.9 mph - N/A   Mostly Cloudy
12:20 PM 50.0 °F - 39.2 °F 66% 30.21 in 6.2 mi North 5.8 mph - N/A   Mostly Cloudy
12:50 PM 51.8 °F - 39.2 °F 62% 30.21 in 6.2 mi North 6.9 mph - N/A   Mostly Cloudy
1:20 PM 51.8 °F - 39.2 °F 62% 30.21 in 6.2 mi North 4.6 mph - N/A   Mostly Cloudy
1:50 PM 50.0 °F - 39.2 °F 66% 30.21 in 6.2 mi NNW 6.9 mph - N/A   Mostly Cloudy
2:20 PM 50.0 °F - 39.2 °F 66% 30.21 in 6.2 mi North 9.2 mph - N/A   Mostly Cloudy
2:50 PM 50.0 °F - 39.2 °F 66% 30.21 in 6.2 mi North 8.1 mph - N/A   Mostly Cloudy
3:20 PM 51.8 °F - 37.4 °F 58% 30.21 in 6.2 mi North 8.1 mph - N/A   Mostly Cloudy
3:50 PM 51.8 °F - 39.2 °F 62% 30.21 in 6.2 mi North 9.2 mph - N/A   Mostly Cloudy
4:20 PM 50.0 °F - 39.2 °F 66% 30.21 in 6.2 mi NNW 6.9 mph - N/A   Mostly Cloudy
4:50 PM 50.0 °F - 37.4 °F 62% 30.21 in 6.2 mi North 5.8 mph - N/A   Mostly Cloudy
5:20 PM 50.0 °F - 37.4 °F 62% 30.21 in 6.2 mi NNW 3.5 mph - N/A   Mostly Cloudy
5:50 PM 48.2 °F - 37.4 °F 66% 30.21 in 6.2 mi NW 4.6 mph - N/A   Mostly Cloudy
6:20 PM 48.2 °F - 37.4 °F 66% 30.21 in 6.2 mi NNW 6.9 mph - N/A   Mostly Cloudy
6:50 PM 48.2 °F - 37.4 °F 66% 30.24 in 6.2 mi NW 4.6 mph - N/A   Mostly Cloudy
7:20 PM 48.2 °F - 37.4 °F 66% 30.24 in 6.2 mi NW 6.9 mph - N/A   Mostly Cloudy
7:50 PM 48.2 °F - 39.2 °F 71% 30.24 in 6.2 mi NW 5.8 mph - N/A   Mostly Cloudy
8:20 PM 48.2 °F - 39.2 °F 71% 30.24 in 6.2 mi NW 6.9 mph - N/A   Mostly Cloudy
8:50 PM 48.2 °F - 39.2 °F 71% 30.24 in 6.2 mi NNW 4.6 mph - N/A   Scattered Clouds
9:20 PM 46.4 °F 45.2 °F 39.2 °F 76% 30.24 in 6.2 mi NW 3.5 mph - N/A   Scattered Clouds
9:50 PM 46.4 °F 45.2 °F 39.2 °F 76% 30.21 in 6.2 mi NNW 3.5 mph - N/A   Scattered Clouds
10:20 PM 48.2 °F - 39.2 °F 71% 30.24 in 6.2 mi Calm Calm - N/A   Scattered Clouds
10:50 PM 48.2 °F - 39.2 °F 71% 30.24 in 6.2 mi NNW 3.5 mph - N/A   Mostly Cloudy
11:50 PM 46.4 °F 45.2 °F 39.2 °F 76% 30.21 in 6.2 mi NNW 3.5 mph - N/A   Mostly Cloudy